owner,sensor,date,latitude,longitude,vertical_datum,mass_concentration_of_oxygen_in_sea_water,qcFlag 
SCCF RECON,ioos:station:SCCF:13:1,2011-08-01T00:00:00Z,26.5255,-82.0032,2.25,5.87,1111122 
SCCF RECON,ioos:station:SCCF:13:1,2011-08-01T01:00:00Z,26.5255,-82.0032,2.16,5.78,1111122 
SCCF RECON,ioos:station:SCCF:13:1,2011-08-01T02:00:00Z,26.5255,-82.0032,2.114,5.52,1111122 
SCCF RECON,ioos:station:SCCF:13:1,2011-08-01T03:00:00Z,26.5255,-82.0032,2.18,5.24,1111122 
SCCF RECON,ioos:station:SCCF:13:1,2011-08-01T04:00:00Z,26.5255,-82.0032,2.36,5.28,1111122 
SCCF RECON,ioos:station:SCCF:13:1,2011-08-01T05:00:00Z,26.5255,-82.0032,2.44,4.6,1111122 
SCCF RECON,ioos:station:SCCF:13:1,2011-08-01T06:00:00Z,26.5255,-82.0032,2.506,4.79,1111122 
SCCF RECON,ioos:station:SCCF:13:1,2011-08-01T07:00:00Z,26.5255,-82.0032,2.57,4.92,1111122 
SCCF RECON,ioos:station:SCCF:13:1,2011-08-01T08:00:00Z,26.5255,-82.0032,2.58,5.13,1111122 
SCCF RECON,ioos:station:SCCF:13:1,2011-08-01T09:00:00Z,26.5255,-82.0032,2.53,5.14,1111122 
SCCF RECON,ioos:station:SCCF:13:1,2011-08-01T10:00:00Z,26.5255,-82.0032,2.43,5.06,1111122 
SCCF RECON,ioos:station:SCCF:13:1,2011-08-01T11:00:00Z,26.5255,-82.0032,2.35,4.51,1111122 
SCCF RECON,ioos:station:SCCF:13:1,2011-08-01T12:00:00Z,26.5255,-82.0032,2.3,4.08,1111122 
SCCF RECON,ioos:station:SCCF:13:1,2011-08-01T13:00:00Z,26.5255,-82.0032,2.251,4.21,1111122 
SCCF RECON,ioos:station:SCCF:13:1,2011-08-01T14:00:00Z,26.5255,-82.0032,2.29,4.36,1111122 
SCCF RECON,ioos:station:SCCF:13:1,2011-08-01T15:00:00Z,26.5255,-82.0032,2.43,4.08,1111122 
SCCF RECON,ioos:station:SCCF:13:1,2011-08-01T16:00:00Z,26.5255,-82.0032,2.547,4.43,1111122 
SCCF RECON,ioos:station:SCCF:13:1,2011-08-01T17:00:00Z,26.5255,-82.0032,2.63,5.09,1111122 
SCCF RECON,ioos:station:SCCF:13:1,2011-08-01T18:00:00Z,26.5255,-82.0032,2.697,5.82,1111122 
SCCF RECON,ioos:station:SCCF:13:1,2011-08-01T19:00:00Z,26.5255,-82.0032,2.727,6.06,1111122 
SCCF RECON,ioos:station:SCCF:13:1,2011-08-01T20:00:00Z,26.5255,-82.0032,2.7,6.38,1111122 
SCCF RECON,ioos:station:SCCF:13:1,2011-08-01T21:00:00Z,26.5255,-82.0032,2.61,6.4,1111122 
SCCF RECON,ioos:station:SCCF:13:1,2011-08-01T22:00:00Z,26.5255,-82.0032,2.49,6.18,1111122 
SCCF RECON,ioos:station:SCCF:13:1,2011-08-01T23:00:00Z,26.5255,-82.0032,2.381,5.73,1111122 
SCCF RECON,ioos:station:SCCF:13:1,2011-08-02T00:00:00Z,26.5255,-82.0032,2.29,5.74,1111122 
SCCF RECON,ioos:station:SCCF:13:1,2011-08-02T01:00:00Z,26.5255,-82.0032,2.201,5.54,1111122 
SCCF RECON,ioos:station:SCCF:13:1,2011-08-02T02:00:00Z,26.5255,-82.0032,2.13,5.49,1111122 
SCCF RECON,ioos:station:SCCF:13:1,2011-08-02T03:00:00Z,26.5255,-82.0032,2.111,5.3,1111122 
SCCF RECON,ioos:station:SCCF:13:1,2011-08-02T04:00:00Z,26.5255,-82.0032,2.25,5.15,1111122 
SCCF RECON,ioos:station:SCCF:13:1,2011-08-02T05:00:00Z,26.5255,-82.0032,2.383,4.75,1111122 
SCCF RECON,ioos:station:SCCF:13:1,2011-08-02T06:00:00Z,26.5255,-82.0032,2.45,4.51,1111122 
SCCF RECON,ioos:station:SCCF:13:1,2011-08-02T07:00:00Z,26.5255,-82.0032,2.51,4.71,1111122 
SCCF RECON,ioos:station:SCCF:13:1,2011-08-02T08:00:00Z,26.5255,-82.0032,2.55,4.77,1111122 
SCCF RECON,ioos:station:SCCF:13:1,2011-08-02T09:00:00Z,26.5255,-82.0032,2.537,5.04,1111122 
SCCF RECON,ioos:station:SCCF:13:1,2011-08-02T10:00:00Z,26.5255,-82.0032,2.44,5.01,1111122 
SCCF RECON,ioos:station:SCCF:13:1,2011-08-02T11:00:00Z,26.5255,-82.0032,2.359,4.66,1111122 
SCCF RECON,ioos:station:SCCF:13:1,2011-08-02T12:00:00Z,26.5255,-82.0032,2.28,4.08,1111122 
SCCF RECON,ioos:station:SCCF:13:1,2011-08-02T13:00:00Z,26.5255,-82.0032,2.22,3.98,1111122 
SCCF RECON,ioos:station:SCCF:13:1,2011-08-02T14:00:00Z,26.5255,-82.0032,2.17,4.24,1111122 
SCCF RECON,ioos:station:SCCF:13:1,2011-08-02T15:00:00Z,26.5255,-82.0032,2.2,4.53,1111122 
SCCF RECON,ioos:station:SCCF:13:1,2011-08-02T16:00:00Z,26.5255,-82.0032,2.365,4.46,1111122 
SCCF RECON,ioos:station:SCCF:13:1,2011-08-02T17:00:00Z,26.5255,-82.0032,2.49,4.66,1111122 
SCCF RECON,ioos:station:SCCF:13:1,2011-08-02T18:00:00Z,26.5255,-82.0032,2.57,4.62,1111122 
SCCF RECON,ioos:station:SCCF:13:1,2011-08-02T19:00:00Z,26.5255,-82.0032,2.601,5.43,1111122 
SCCF RECON,ioos:station:SCCF:13:1,2011-08-02T20:00:00Z,26.5255,-82.0032,2.62,6.02,1111122 
SCCF RECON,ioos:station:SCCF:13:1,2011-08-02T21:00:00Z,26.5255,-82.0032,2.593,6.11,1111122 
SCCF RECON,ioos:station:SCCF:13:1,2011-08-02T22:00:00Z,26.5255,-82.0032,2.53,5.99,1111122 
SCCF RECON,ioos:station:SCCF:13:1,2011-08-02T23:00:00Z,26.5255,-82.0032,2.43,5.83,1111122 
SCCF RECON,ioos:station:SCCF:13:1,2011-08-03T00:00:00Z,26.5255,-82.0032,2.33,5.32,1111122 
SCCF RECON,ioos:station:SCCF:13:1,2011-08-03T01:00:00Z,26.5255,-82.0032,2.25,5.24,1111122 
SCCF RECON,ioos:station:SCCF:13:1,2011-08-03T02:00:00Z,26.5255,-82.0032,2.18,5.15,1111122 
SCCF RECON,ioos:station:SCCF:13:1,2011-08-03T03:00:00Z,26.5255,-82.0032,2.13,5.01,1111122 
SCCF RECON,ioos:station:SCCF:13:1,2011-08-03T04:00:00Z,26.5255,-82.0032,2.19,5.07,1111122 
SCCF RECON,ioos:station:SCCF:13:1,2011-08-03T05:00:00Z,26.5255,-82.0032,2.36,4.79,1111122 
SCCF RECON,ioos:station:SCCF:13:1,2011-08-03T06:00:00Z,26.5255,-82.0032,2.45,4.38,1111122 
SCCF RECON,ioos:station:SCCF:13:1,2011-08-03T07:00:00Z,26.5255,-82.0032,2.52,4.4,1111122 
SCCF RECON,ioos:station:SCCF:13:1,2011-08-03T08:00:00Z,26.5255,-82.0032,2.56,4.58,1111122 
SCCF RECON,ioos:station:SCCF:13:1,2011-08-03T09:00:00Z,26.5255,-82.0032,2.58,4.87,1111122 
SCCF RECON,ioos:station:SCCF:13:1,2011-08-03T10:00:00Z,26.5255,-82.0032,2.52,4.76,1111122 
SCCF RECON,ioos:station:SCCF:13:1,2011-08-03T11:00:00Z,26.5255,-82.0032,2.44,4.55,1111122 
SCCF RECON,ioos:station:SCCF:13:1,2011-08-03T12:00:00Z,26.5255,-82.0032,2.35,4.09,1111122 
SCCF RECON,ioos:station:SCCF:13:1,2011-08-03T13:00:00Z,26.5255,-82.0032,2.27,3.88,1111122 
SCCF RECON,ioos:station:SCCF:13:1,2011-08-03T14:00:00Z,26.5255,-82.0032,2.2,4.24,1111122 
SCCF RECON,ioos:station:SCCF:13:1,2011-08-03T15:00:00Z,26.5255,-82.0032,2.163,4.28,1111122 
SCCF RECON,ioos:station:SCCF:13:1,2011-08-03T16:00:00Z,26.5255,-82.0032,2.2,4.45,1111122 
SCCF RECON,ioos:station:SCCF:13:1,2011-08-03T17:00:00Z,26.5255,-82.0032,2.325,4.0,1111122 
SCCF RECON,ioos:station:SCCF:13:1,2011-08-03T18:00:00Z,26.5255,-82.0032,2.42,4.77,1111122 
SCCF RECON,ioos:station:SCCF:13:1,2011-08-03T19:00:00Z,26.5255,-82.0032,2.47,4.48,1111122 
SCCF RECON,ioos:station:SCCF:13:1,2011-08-03T20:00:00Z,26.5255,-82.0032,2.519,5.14,1111122 
SCCF RECON,ioos:station:SCCF:13:1,2011-08-03T21:00:00Z,26.5255,-82.0032,2.56,5.56,1111122 
SCCF RECON,ioos:station:SCCF:13:1,2011-08-03T22:00:00Z,26.5255,-82.0032,2.551,5.48,1111122 
SCCF RECON,ioos:station:SCCF:13:1,2011-08-03T23:00:00Z,26.5255,-82.0032,2.49,5.32,1111122 
SCCF RECON,ioos:station:SCCF:13:1,2011-08-04T00:00:00Z,26.5255,-82.0032,2.39,5.04,1111122 
SCCF RECON,ioos:station:SCCF:13:1,2011-08-04T01:00:00Z,26.5255,-82.0032,2.309,4.52,1111122 
SCCF RECON,ioos:station:SCCF:13:1,2011-08-04T02:00:00Z,26.5255,-82.0032,2.24,4.68,1111122 
SCCF RECON,ioos:station:SCCF:13:1,2011-08-04T03:00:00Z,26.5255,-82.0032,2.199,4.78,1111122 
SCCF RECON,ioos:station:SCCF:13:1,2011-08-04T04:00:00Z,26.5255,-82.0032,2.175,4.81,1111122 
SCCF RECON,ioos:station:SCCF:13:1,2011-08-04T05:00:00Z,26.5255,-82.0032,2.29,5.01,1111122 
SCCF RECON,ioos:station:SCCF:13:1,2011-08-04T06:00:00Z,26.5255,-82.0032,2.44,3.87,1111122 
SCCF RECON,ioos:station:SCCF:13:1,2011-08-04T07:00:00Z,26.5255,-82.0032,2.52,3.89,1111122 
SCCF RECON,ioos:station:SCCF:13:1,2011-08-04T08:00:00Z,26.5255,-82.0032,2.58,4.19,1111122 
SCCF RECON,ioos:station:SCCF:13:1,2011-08-04T09:00:00Z,26.5255,-82.0032,2.621,4.39,1111122 
SCCF RECON,ioos:station:SCCF:13:1,2011-08-04T10:00:00Z,26.5255,-82.0032,2.63,4.42,1111122 
SCCF RECON,ioos:station:SCCF:13:1,2011-08-04T11:00:00Z,26.5255,-82.0032,2.569,4.19,1111122 
SCCF RECON,ioos:station:SCCF:13:1,2011-08-04T12:00:00Z,26.5255,-82.0032,2.47,4.05,1111122 
SCCF RECON,ioos:station:SCCF:13:1,2011-08-04T13:00:00Z,26.5255,-82.0032,2.38,3.78,1111122 
SCCF RECON,ioos:station:SCCF:13:1,2011-08-04T14:00:00Z,26.5255,-82.0032,2.31,3.73,1111122 
SCCF RECON,ioos:station:SCCF:13:1,2011-08-04T15:00:00Z,26.5255,-82.0032,2.24,3.89,1111122 
SCCF RECON,ioos:station:SCCF:13:1,2011-08-04T16:00:00Z,26.5255,-82.0032,2.199,4.18,1111122 
SCCF RECON,ioos:station:SCCF:13:1,2011-08-04T17:00:00Z,26.5255,-82.0032,2.23,4.27,1111122 
SCCF RECON,ioos:station:SCCF:13:1,2011-08-04T19:00:00Z,26.5255,-82.0032,2.41,4.06,1111122 
SCCF RECON,ioos:station:SCCF:13:1,2011-08-04T20:00:00Z,26.5255,-82.0032,2.44,4.96,1111122 
SCCF RECON,ioos:station:SCCF:13:1,2011-08-04T21:00:00Z,26.5255,-82.0032,2.47,4.47,1111122 
SCCF RECON,ioos:station:SCCF:13:1,2011-08-04T22:00:00Z,26.5255,-82.0032,2.49,5.33,1111122 
SCCF RECON,ioos:station:SCCF:13:1,2011-08-04T23:00:00Z,26.5255,-82.0032,2.49,5.51,1111122 
SCCF RECON,ioos:station:SCCF:13:1,2011-08-05T00:00:00Z,26.5255,-82.0032,2.44,5.45,1111122 
SCCF RECON,ioos:station:SCCF:13:1,2011-08-05T01:00:00Z,26.5255,-82.0032,2.38,5.26,1111122 
SCCF RECON,ioos:station:SCCF:13:1,2011-08-05T02:00:00Z,26.5255,-82.0032,2.31,4.56,1111122 
SCCF RECON,ioos:station:SCCF:13:1,2011-08-05T03:00:00Z,26.5255,-82.0032,2.26,4.89,1111122 
SCCF RECON,ioos:station:SCCF:13:1,2011-08-05T04:00:00Z,26.5255,-82.0032,2.22,4.96,1111122 
SCCF RECON,ioos:station:SCCF:13:1,2011-08-05T05:00:00Z,26.5255,-82.0032,2.25,4.34,1111122 
SCCF RECON,ioos:station:SCCF:13:1,2011-08-05T06:00:00Z,26.5255,-82.0032,2.37,4.76,1111122 
SCCF RECON,ioos:station:SCCF:13:1,2011-08-05T07:00:00Z,26.5255,-82.0032,2.489,3.87,1111122 
SCCF RECON,ioos:station:SCCF:13:1,2011-08-05T08:00:00Z,26.5255,-82.0032,2.562,4.1,1111122 
SCCF RECON,ioos:station:SCCF:13:1,2011-08-05T09:00:00Z,26.5255,-82.0032,2.6,4.41,1111122 
SCCF RECON,ioos:station:SCCF:13:1,2011-08-05T10:00:00Z,26.5255,-82.0032,2.61,4.24,1111122 
SCCF RECON,ioos:station:SCCF:13:1,2011-08-05T11:00:00Z,26.5255,-82.0032,2.591,4.2,1111122 
SCCF RECON,ioos:station:SCCF:13:1,2011-08-05T12:00:00Z,26.5255,-82.0032,2.55,3.88,1111122 
SCCF RECON,ioos:station:SCCF:13:1,2011-08-05T13:00:00Z,26.5255,-82.0032,2.45,3.77,1111122 
SCCF RECON,ioos:station:SCCF:13:1,2011-08-05T14:00:00Z,26.5255,-82.0032,2.34,3.97,1111122 
SCCF RECON,ioos:station:SCCF:13:1,2011-08-05T15:00:00Z,26.5255,-82.0032,2.271,4.29,1111122 
SCCF RECON,ioos:station:SCCF:13:1,2011-08-05T16:00:00Z,26.5255,-82.0032,2.209,4.57,1111122 
SCCF RECON,ioos:station:SCCF:13:1,2011-08-05T17:00:00Z,26.5255,-82.0032,2.142,5.0,1111122 
SCCF RECON,ioos:station:SCCF:13:1,2011-08-05T18:00:00Z,26.5255,-82.0032,2.13,4.93,1111122 
SCCF RECON,ioos:station:SCCF:13:1,2011-08-05T19:00:00Z,26.5255,-82.0032,2.202,5.33,1111122 
SCCF RECON,ioos:station:SCCF:13:1,2011-08-05T20:00:00Z,26.5255,-82.0032,2.31,5.28,1111122 
SCCF RECON,ioos:station:SCCF:13:1,2011-08-05T21:00:00Z,26.5255,-82.0032,2.362,6.05,1111122 
SCCF RECON,ioos:station:SCCF:13:1,2011-08-05T22:00:00Z,26.5255,-82.0032,2.38,5.61,1111122 
SCCF RECON,ioos:station:SCCF:13:1,2011-08-05T23:00:00Z,26.5255,-82.0032,2.4,6.06,1111122 
SCCF RECON,ioos:station:SCCF:13:1,2011-08-06T00:00:00Z,26.5255,-82.0032,2.43,6.16,1111122 
SCCF RECON,ioos:station:SCCF:13:1,2011-08-06T01:00:00Z,26.5255,-82.0032,2.41,5.47,1111122 
SCCF RECON,ioos:station:SCCF:13:1,2011-08-06T02:00:00Z,26.5255,-82.0032,2.395,5.57,1111122 
SCCF RECON,ioos:station:SCCF:13:1,2011-08-06T03:00:00Z,26.5255,-82.0032,2.33,6.03,1111122 
SCCF RECON,ioos:station:SCCF:13:1,2011-08-06T04:00:00Z,26.5255,-82.0032,2.32,4.95,1111122 
SCCF RECON,ioos:station:SCCF:13:1,2011-08-06T05:00:00Z,26.5255,-82.0032,2.29,4.88,1111122 
SCCF RECON,ioos:station:SCCF:13:1,2011-08-06T06:00:00Z,26.5255,-82.0032,2.32,4.96,1111122 
SCCF RECON,ioos:station:SCCF:13:1,2011-08-06T07:00:00Z,26.5255,-82.0032,2.4,3.46,1111122 
SCCF RECON,ioos:station:SCCF:13:1,2011-08-06T08:00:00Z,26.5255,-82.0032,2.481,4.66,1111122 
SCCF RECON,ioos:station:SCCF:13:1,2011-08-06T09:00:00Z,26.5255,-82.0032,2.55,4.98,1111122 
SCCF RECON,ioos:station:SCCF:13:1,2011-08-06T10:00:00Z,26.5255,-82.0032,2.581,4.91,1111122 
SCCF RECON,ioos:station:SCCF:13:1,2011-08-06T11:00:00Z,26.5255,-82.0032,2.64,4.39,1111122 
SCCF RECON,ioos:station:SCCF:13:1,2011-08-06T12:00:00Z,26.5255,-82.0032,2.631,4.31,1111122 
SCCF RECON,ioos:station:SCCF:13:1,2011-08-06T13:00:00Z,26.5255,-82.0032,2.55,4.38,1111122 
SCCF RECON,ioos:station:SCCF:13:1,2011-08-06T14:00:00Z,26.5255,-82.0032,2.45,4.3,1111122 
SCCF RECON,ioos:station:SCCF:13:1,2011-08-06T15:00:00Z,26.5255,-82.0032,2.362,4.48,1111122 
SCCF RECON,ioos:station:SCCF:13:1,2011-08-06T16:00:00Z,26.5255,-82.0032,2.283,4.84,1111122 
SCCF RECON,ioos:station:SCCF:13:1,2011-08-06T17:00:00Z,26.5255,-82.0032,2.21,5.09,1111122 
SCCF RECON,ioos:station:SCCF:13:1,2011-08-06T18:00:00Z,26.5255,-82.0032,2.137,5.4,1111122 
SCCF RECON,ioos:station:SCCF:13:1,2011-08-06T19:00:00Z,26.5255,-82.0032,2.1,5.67,1111122 
SCCF RECON,ioos:station:SCCF:13:1,2011-08-06T20:00:00Z,26.5255,-82.0032,2.128,5.48,1111122 
SCCF RECON,ioos:station:SCCF:13:1,2011-08-06T21:00:00Z,26.5255,-82.0032,2.22,6.07,1111122 
SCCF RECON,ioos:station:SCCF:13:1,2011-08-06T22:00:00Z,26.5255,-82.0032,2.27,5.8,1111122 
SCCF RECON,ioos:station:SCCF:13:1,2011-08-06T23:00:00Z,26.5255,-82.0032,2.33,6.03,1111122 
SCCF RECON,ioos:station:SCCF:13:1,2011-08-07T00:00:00Z,26.5255,-82.0032,2.36,5.98,1111122 
SCCF RECON,ioos:station:SCCF:13:1,2011-08-07T01:00:00Z,26.5255,-82.0032,2.393,5.41,1111122 
SCCF RECON,ioos:station:SCCF:13:1,2011-08-07T02:00:00Z,26.5255,-82.0032,2.39,5.67,1111122 
SCCF RECON,ioos:station:SCCF:13:1,2011-08-07T03:00:00Z,26.5255,-82.0032,2.37,5.51,1111122 
SCCF RECON,ioos:station:SCCF:13:1,2011-08-07T04:00:00Z,26.5255,-82.0032,2.345,5.48,1111122 
SCCF RECON,ioos:station:SCCF:13:1,2011-08-07T05:00:00Z,26.5255,-82.0032,2.347,5.23,1111122 
SCCF RECON,ioos:station:SCCF:13:1,2011-08-07T06:00:00Z,26.5255,-82.0032,2.33,5.47,1111122 
SCCF RECON,ioos:station:SCCF:13:1,2011-08-07T07:00:00Z,26.5255,-82.0032,2.353,5.06,1111122 
SCCF RECON,ioos:station:SCCF:13:1,2011-08-07T08:00:00Z,26.5255,-82.0032,2.41,4.06,1111122 
SCCF RECON,ioos:station:SCCF:13:1,2011-08-07T09:00:00Z,26.5255,-82.0032,2.469,4.52,1111122 
SCCF RECON,ioos:station:SCCF:13:1,2011-08-07T10:00:00Z,26.5255,-82.0032,2.556,4.89,1111122 
SCCF RECON,ioos:station:SCCF:13:1,2011-08-07T11:00:00Z,26.5255,-82.0032,2.601,4.98,1111122 
SCCF RECON,ioos:station:SCCF:13:1,2011-08-07T12:00:00Z,26.5255,-82.0032,2.63,4.5,1111122 
SCCF RECON,ioos:station:SCCF:13:1,2011-08-07T13:00:00Z,26.5255,-82.0032,2.63,4.5,1111122 
SCCF RECON,ioos:station:SCCF:13:1,2011-08-07T14:00:00Z,26.5255,-82.0032,2.55,4.24,1111122 
SCCF RECON,ioos:station:SCCF:13:1,2011-08-07T15:00:00Z,26.5255,-82.0032,2.463,4.08,1111122 
SCCF RECON,ioos:station:SCCF:13:1,2011-08-07T16:00:00Z,26.5255,-82.0032,2.35,4.58,1111122 
SCCF RECON,ioos:station:SCCF:13:1,2011-08-07T17:00:00Z,26.5255,-82.0032,2.27,4.55,1111122 
SCCF RECON,ioos:station:SCCF:13:1,2011-08-07T18:00:00Z,26.5255,-82.0032,2.192,5.02,1111122 
SCCF RECON,ioos:station:SCCF:13:1,2011-08-07T19:00:00Z,26.5255,-82.0032,2.124,5.07,1111122 
SCCF RECON,ioos:station:SCCF:13:1,2011-08-07T20:00:00Z,26.5255,-82.0032,2.07,5.01,1111122 
SCCF RECON,ioos:station:SCCF:13:1,2011-08-07T21:00:00Z,26.5255,-82.0032,2.08,4.91,1111122 
SCCF RECON,ioos:station:SCCF:13:1,2011-08-07T22:00:00Z,26.5255,-82.0032,2.16,5.05,1111122 
SCCF RECON,ioos:station:SCCF:13:1,2011-08-07T23:00:00Z,26.5255,-82.0032,2.24,4.99,1111122 
SCCF RECON,ioos:station:SCCF:13:1,2011-08-08T00:00:00Z,26.5255,-82.0032,2.285,4.35,1111122 
SCCF RECON,ioos:station:SCCF:13:1,2011-08-08T01:00:00Z,26.5255,-82.0032,2.34,4.63,1111122 
SCCF RECON,ioos:station:SCCF:13:1,2011-08-08T02:00:00Z,26.5255,-82.0032,2.38,4.81,1111122 
SCCF RECON,ioos:station:SCCF:13:1,2011-08-08T03:00:00Z,26.5255,-82.0032,2.399,4.84,1111122 
SCCF RECON,ioos:station:SCCF:13:1,2011-08-08T04:00:00Z,26.5255,-82.0032,2.37,4.95,1111122 
SCCF RECON,ioos:station:SCCF:13:1,2011-08-08T05:00:00Z,26.5255,-82.0032,2.36,4.86,1111122 
SCCF RECON,ioos:station:SCCF:13:1,2011-08-08T06:00:00Z,26.5255,-82.0032,2.38,4.59,1111122 
SCCF RECON,ioos:station:SCCF:13:1,2011-08-08T07:00:00Z,26.5255,-82.0032,2.41,4.45,1111122 
SCCF RECON,ioos:station:SCCF:13:1,2011-08-08T08:00:00Z,26.5255,-82.0032,2.44,3.92,1111122 
SCCF RECON,ioos:station:SCCF:13:1,2011-08-08T09:00:00Z,26.5255,-82.0032,2.501,4.46,1111122 
SCCF RECON,ioos:station:SCCF:13:1,2011-08-08T10:00:00Z,26.5255,-82.0032,2.587,4.5,1111122 
SCCF RECON,ioos:station:SCCF:13:1,2011-08-08T11:00:00Z,26.5255,-82.0032,2.643,4.7,1111122 
SCCF RECON,ioos:station:SCCF:13:1,2011-08-08T12:00:00Z,26.5255,-82.0032,2.66,4.56,1111122 
SCCF RECON,ioos:station:SCCF:13:1,2011-08-08T13:00:00Z,26.5255,-82.0032,2.707,4.4,1111122 
SCCF RECON,ioos:station:SCCF:13:1,2011-08-08T14:00:00Z,26.5255,-82.0032,2.718,4.44,1111122 
SCCF RECON,ioos:station:SCCF:13:1,2011-08-08T15:00:00Z,26.5255,-82.0032,2.65,4.32,1111122 
SCCF RECON,ioos:station:SCCF:13:1,2011-08-08T16:00:00Z,26.5255,-82.0032,2.53,4.08,1111122 
SCCF RECON,ioos:station:SCCF:13:1,2011-08-08T17:00:00Z,26.5255,-82.0032,2.43,4.3,1111122 
SCCF RECON,ioos:station:SCCF:13:1,2011-08-08T18:00:00Z,26.5255,-82.0032,2.35,4.49,1111122 
SCCF RECON,ioos:station:SCCF:13:1,2011-08-08T19:00:00Z,26.5255,-82.0032,2.26,4.71,1111122 
SCCF RECON,ioos:station:SCCF:13:1,2011-08-08T20:00:00Z,26.5255,-82.0032,2.16,4.49,1111122 
SCCF RECON,ioos:station:SCCF:13:1,2011-08-08T21:00:00Z,26.5255,-82.0032,2.16,4.28,1111122 
SCCF RECON,ioos:station:SCCF:13:1,2011-08-08T22:00:00Z,26.5255,-82.0032,2.11,4.14,1111122 
SCCF RECON,ioos:station:SCCF:13:1,2011-08-08T23:00:00Z,26.5255,-82.0032,2.15,3.99,1111122 
SCCF RECON,ioos:station:SCCF:13:1,2011-08-09T00:00:00Z,26.5255,-82.0032,2.25,3.98,1111122 
SCCF RECON,ioos:station:SCCF:13:1,2011-08-09T01:00:00Z,26.5255,-82.0032,2.335,3.22,1111122 
SCCF RECON,ioos:station:SCCF:13:1,2011-08-09T02:00:00Z,26.5255,-82.0032,2.35,3.37,1111122 
SCCF RECON,ioos:station:SCCF:13:1,2011-08-09T03:00:00Z,26.5255,-82.0032,2.39,3.58,1111122 
SCCF RECON,ioos:station:SCCF:13:1,2011-08-09T04:00:00Z,26.5255,-82.0032,2.42,3.77,1111122 
SCCF RECON,ioos:station:SCCF:13:1,2011-08-09T05:00:00Z,26.5255,-82.0032,2.44,4.06,1111122 
SCCF RECON,ioos:station:SCCF:13:1,2011-08-09T06:00:00Z,26.5255,-82.0032,2.44,4.07,1111122 
SCCF RECON,ioos:station:SCCF:13:1,2011-08-09T07:00:00Z,26.5255,-82.0032,2.42,3.72,1111122 
SCCF RECON,ioos:station:SCCF:13:1,2011-08-09T08:00:00Z,26.5255,-82.0032,2.4,3.89,1111122 
SCCF RECON,ioos:station:SCCF:13:1,2011-08-09T09:00:00Z,26.5255,-82.0032,2.436,3.76,1111122 
SCCF RECON,ioos:station:SCCF:13:1,2011-08-09T10:00:00Z,26.5255,-82.0032,2.49,3.28,1111122 
SCCF RECON,ioos:station:SCCF:13:1,2011-08-09T11:00:00Z,26.5255,-82.0032,2.55,2.98,1111122 
SCCF RECON,ioos:station:SCCF:13:1,2011-08-09T12:00:00Z,26.5255,-82.0032,2.603,3.58,1111122 
SCCF RECON,ioos:station:SCCF:13:1,2011-08-09T13:00:00Z,26.5255,-82.0032,2.66,4.05,1111122 
SCCF RECON,ioos:station:SCCF:13:1,2011-08-09T14:00:00Z,26.5255,-82.0032,2.73,4.12,1111122 
SCCF RECON,ioos:station:SCCF:13:1,2011-08-09T15:00:00Z,26.5255,-82.0032,2.75,4.29,1111122 
SCCF RECON,ioos:station:SCCF:13:1,2011-08-09T16:00:00Z,26.5255,-82.0032,2.69,4.34,1111122 
SCCF RECON,ioos:station:SCCF:13:1,2011-08-09T17:00:00Z,26.5255,-82.0032,2.58,4.17,1111122 
SCCF RECON,ioos:station:SCCF:13:1,2011-08-09T18:00:00Z,26.5255,-82.0032,2.49,4.07,1111122 
SCCF RECON,ioos:station:SCCF:13:1,2011-08-09T19:00:00Z,26.5255,-82.0032,2.4,4.21,1111122 
SCCF RECON,ioos:station:SCCF:13:1,2011-08-09T20:00:00Z,26.5255,-82.0032,2.318,4.23,1111122 
SCCF RECON,ioos:station:SCCF:13:1,2011-08-09T21:00:00Z,26.5255,-82.0032,2.22,4.17,1111122 
SCCF RECON,ioos:station:SCCF:13:1,2011-08-09T22:00:00Z,26.5255,-82.0032,2.16,4.12,1111122 
SCCF RECON,ioos:station:SCCF:13:1,2011-08-09T23:00:00Z,26.5255,-82.0032,2.14,3.99,1111122 
SCCF RECON,ioos:station:SCCF:13:1,2011-08-10T00:00:00Z,26.5255,-82.0032,2.14,4.03,1111122 
SCCF RECON,ioos:station:SCCF:13:1,2011-08-10T01:00:00Z,26.5255,-82.0032,2.216,3.98,1111122 
SCCF RECON,ioos:station:SCCF:13:1,2011-08-10T02:00:00Z,26.5255,-82.0032,2.26,3.93,1111122 
SCCF RECON,ioos:station:SCCF:13:1,2011-08-10T03:00:00Z,26.5255,-82.0032,2.35,3.57,1111122 
SCCF RECON,ioos:station:SCCF:13:1,2011-08-10T04:00:00Z,26.5255,-82.0032,2.44,3.68,1111122 
SCCF RECON,ioos:station:SCCF:13:1,2011-08-10T05:00:00Z,26.5255,-82.0032,2.48,3.76,1111122 
SCCF RECON,ioos:station:SCCF:13:1,2011-08-10T06:00:00Z,26.5255,-82.0032,2.48,3.97,1111122 
SCCF RECON,ioos:station:SCCF:13:1,2011-08-10T07:00:00Z,26.5255,-82.0032,2.4,4.04,1111122 
SCCF RECON,ioos:station:SCCF:13:1,2011-08-10T08:00:00Z,26.5255,-82.0032,2.33,3.79,1111122 
SCCF RECON,ioos:station:SCCF:13:1,2011-08-10T09:00:00Z,26.5255,-82.0032,2.31,3.47,1111122 
SCCF RECON,ioos:station:SCCF:13:1,2011-08-10T10:00:00Z,26.5255,-82.0032,2.37,3.07,1111122 
SCCF RECON,ioos:station:SCCF:13:1,2011-08-10T11:00:00Z,26.5255,-82.0032,2.49,2.87,1111122 
SCCF RECON,ioos:station:SCCF:13:1,2011-08-10T12:00:00Z,26.5255,-82.0032,2.56,3.47,1111122 
SCCF RECON,ioos:station:SCCF:13:1,2011-08-10T13:00:00Z,26.5255,-82.0032,2.62,3.86,1111122 
SCCF RECON,ioos:station:SCCF:13:1,2011-08-10T14:00:00Z,26.5255,-82.0032,2.69,4.05,1111122 
SCCF RECON,ioos:station:SCCF:13:1,2011-08-10T15:00:00Z,26.5255,-82.0032,2.74,4.12,1111122 
SCCF RECON,ioos:station:SCCF:13:1,2011-08-10T16:00:00Z,26.5255,-82.0032,2.744,4.29,1111122 
SCCF RECON,ioos:station:SCCF:13:1,2011-08-10T17:00:00Z,26.5255,-82.0032,2.64,4.3,1111122 
SCCF RECON,ioos:station:SCCF:13:1,2011-08-10T18:00:00Z,26.5255,-82.0032,2.56,4.06,1111122 
SCCF RECON,ioos:station:SCCF:13:1,2011-08-10T19:00:00Z,26.5255,-82.0032,2.46,3.94,1111122 
SCCF RECON,ioos:station:SCCF:13:1,2011-08-10T20:00:00Z,26.5255,-82.0032,2.36,3.98,1111122 
SCCF RECON,ioos:station:SCCF:13:1,2011-08-10T21:00:00Z,26.5255,-82.0032,2.27,4.0,1111122 
SCCF RECON,ioos:station:SCCF:13:1,2011-08-10T22:00:00Z,26.5255,-82.0032,2.17,4.04,1111122 
SCCF RECON,ioos:station:SCCF:13:1,2011-08-10T23:00:00Z,26.5255,-82.0032,2.12,3.86,1111122 
SCCF RECON,ioos:station:SCCF:13:1,2011-08-11T00:00:00Z,26.5255,-82.0032,2.08,3.86,1111122 
SCCF RECON,ioos:station:SCCF:13:1,2011-08-11T01:00:00Z,26.5255,-82.0032,2.077,3.72,1111122 
SCCF RECON,ioos:station:SCCF:13:1,2011-08-11T02:00:00Z,26.5255,-82.0032,2.17,3.72,1111122 
SCCF RECON,ioos:station:SCCF:13:1,2011-08-11T03:00:00Z,26.5255,-82.0032,2.311,3.85,1111122 
SCCF RECON,ioos:station:SCCF:13:1,2011-08-11T04:00:00Z,26.5255,-82.0032,2.41,3.56,1111122 
SCCF RECON,ioos:station:SCCF:13:1,2011-08-11T05:00:00Z,26.5255,-82.0032,2.44,3.53,1111122 
SCCF RECON,ioos:station:SCCF:13:1,2011-08-11T06:00:00Z,26.5255,-82.0032,2.432,3.55,1111122 
SCCF RECON,ioos:station:SCCF:13:1,2011-08-11T07:00:00Z,26.5255,-82.0032,2.36,3.37,1111122 
SCCF RECON,ioos:station:SCCF:13:1,2011-08-11T08:00:00Z,26.5255,-82.0032,2.31,3.55,1111122 
SCCF RECON,ioos:station:SCCF:13:1,2011-08-11T09:00:00Z,26.5255,-82.0032,2.3,3.61,1111122 
SCCF RECON,ioos:station:SCCF:13:1,2011-08-11T10:00:00Z,26.5255,-82.0032,2.3,3.0,1111122 
SCCF RECON,ioos:station:SCCF:13:1,2011-08-11T11:00:00Z,26.5255,-82.0032,2.37,2.81,1111122 
SCCF RECON,ioos:station:SCCF:13:1,2011-08-11T12:00:00Z,26.5255,-82.0032,2.48,2.47,1111122 
SCCF RECON,ioos:station:SCCF:13:1,2011-08-11T13:00:00Z,26.5255,-82.0032,2.56,3.23,1111122 
SCCF RECON,ioos:station:SCCF:13:1,2011-08-11T14:00:00Z,26.5255,-82.0032,2.62,3.61,1111122 
SCCF RECON,ioos:station:SCCF:13:1,2011-08-11T15:00:00Z,26.5255,-82.0032,2.68,3.71,1111122 
SCCF RECON,ioos:station:SCCF:13:1,2011-08-11T16:00:00Z,26.5255,-82.0032,2.72,3.88,1111122 
SCCF RECON,ioos:station:SCCF:13:1,2011-08-11T17:00:00Z,26.5255,-82.0032,2.7,3.84,1111122 
SCCF RECON,ioos:station:SCCF:13:1,2011-08-11T18:00:00Z,26.5255,-82.0032,2.59,4.04,1111122 
SCCF RECON,ioos:station:SCCF:13:1,2011-08-11T19:00:00Z,26.5255,-82.0032,2.48,4.2,1111122 
SCCF RECON,ioos:station:SCCF:13:1,2011-08-11T20:00:00Z,26.5255,-82.0032,2.38,4.01,1111122 
SCCF RECON,ioos:station:SCCF:13:1,2011-08-11T21:00:00Z,26.5255,-82.0032,2.283,4.32,1111122 
SCCF RECON,ioos:station:SCCF:13:1,2011-08-11T22:00:00Z,26.5255,-82.0032,2.19,4.28,1111122 